Regional Weather Roundup
Issued by NWS Charleston, WV

Home | Current Version | Previous Version | Text Only | Print | Product List | Glossary Off
Versions: 1 2 3 4 5 6 7 8 9 10 11 12 13 14 15 16 17 18 19 20 21 22 23 24 25 26 27

000
ASUS41 KRLX 151310
RWRRLX
West Virginia Regional Weather Roundup
National Weather Service Charleston WV
800 AM EST FRI DEC 15 2017

Note: "fair" indicates few or no clouds below 12,000 feet with no
significant weather and/or obstructions to visibility.

WVZ003-151400-
Northern Panhandle of West Virginia

CITY           SKY/WX    TMP DP  RH WIND       PRES   REMARKS
WHEELING       PTCLDY    15  12  88 CALM      29.96F
$$

WVZ009-151400-
Northwest West Virginia

CITY           SKY/WX    TMP DP  RH WIND       PRES   REMARKS
PARKERSBURG    CLOUDY    23  17  78 CALM      30.03S
$$

WVZ006-151400-
Western West Virginia

CITY           SKY/WX    TMP DP  RH WIND       PRES   REMARKS
HUNTINGTON     CLOUDY    25  19  78 CALM      30.01S
$$

WVZ015-151400-
West Central West Virginia

CITY           SKY/WX    TMP DP  RH WIND       PRES   REMARKS
CHARLESTON     CLOUDY    28  19  69 CALM      29.99S
$$

WVZ022-031-151400-
North Central West Virginia

CITY           SKY/WX    TMP DP  RH WIND       PRES   REMARKS
CLARKSBURG     CLOUDY    27  21  78 CALM      29.96F
MORGANTOWN     CLOUDY    24  20  84 SE3       29.96F
$$

WVZ025-035-042-045-151400-
Southern West Virginia

CITY           SKY/WX    TMP DP  RH WIND       PRES   REMARKS
BECKLEY        CLOUDY    28  21  75 CALM      29.90F
LOGAN          CLOUDY    28  23  80 CALM      29.96R
BLUEFIELD      CLOUDY    26  20  77 S3        29.90F
LEWISBURG      CLOUDY    28  22  78 CALM      29.92S
$$

WVZ047-151400-
Northern Mountains of West Virginia

CITY           SKY/WX    TMP DP  RH WIND       PRES   REMARKS
ELKINS         CLOUDY    26  21  81 CALM      29.91F
$$

WVZ052-151400-
Eastern Panhandle of West Virginia

CITY           SKY/WX    TMP DP  RH WIND       PRES   REMARKS
MARTINSBURG    CLOUDY    25  15  66 CALM      30.04F
PETERSBURG     CLOUDY    25  16  67 N3        30.00S
$$




USA.gov is the U.S. government's official web portal to all federal, state and local government web resources and services.